Hourly Data Report for October 15, 2015

All times are specified in Local Standard Time (LST). Add 1 hour to adjust for Daylight Saving Time where and when it is observed.

CHARLOTTETOWN A
PRINCE EDWARD ISLAND

46°17'21.000" N
63°07'09.000" W
48.50 m
8300301
71706
YYG

Download Data

Hourly Data (October 2015)
Hourly Data Report for October 15, 2015
Temp Definition
°C
Dew Point Temp Definition
°C
Rel Hum Definition
%
Wind Dir Definition
10's deg

Wind Spd Definition
km/h
Visibility Definition
km
Stn Press Definition
kPa
Hmdx Definition


Wind Chill Definition


Weather Definition


TIME
00:00 Legend Double Dagger 12.7 11.1 90 24 16 24.1 99.64     LegendNANA
01:00 Legend Double Dagger 12.8 9.5 80 30 17 24.1 99.69     LegendNANA
02:00 Legend Double Dagger 11.9 8.4 79 30 9 24.1 99.75     Cloudy
03:00 Legend Double Dagger 11.3 8.7 84 28 9 24.1 99.78     Rain Showers
04:00 Legend Double Dagger 10.3 7.9 85 31 5 19.3 99.86     Rain Showers
05:00 Legend Double Dagger 9.6 5.4 75 32 8 24.1 99.90     Cloudy
06:00 Legend Double Dagger 8.9 3.8 70 32 11 24.1 99.99     LegendNANA
07:00 Legend Double Dagger 8.6 3.9 72 30 13 24.1 100.06     LegendNANA
08:00 Legend Double Dagger 8.5 2.8 67 30 16 24.1 100.10     Mostly Cloudy
09:00 Legend Double Dagger 8.6 2.4 65 30 11 24.1 100.18     LegendNANA
10:00 Legend Double Dagger 9.4 2.5 62 29 13 24.1 100.24     LegendNANA
11:00 Legend Double Dagger 9.4 1.8 59 30 18 24.1 100.25     Mostly Cloudy
12:00 Legend Double Dagger 10.1 3.0 61 30 10 24.1 100.23     LegendNANA
13:00 Legend Double Dagger 10.6 0.7 50 26 19 24.1 100.26     LegendNANA
14:00 Legend Double Dagger 10.6 1.7 54 28 16 24.1 100.24     Mainly Clear
15:00 Legend Double Dagger 10.3 1.4 54 29 15 24.1 100.27     LegendNANA
16:00 Legend Double Dagger 10.3 1.2 53 25 15 24.1 100.32     LegendNANA
17:00 Legend Double Dagger 9.4 1.8 59 26 8 24.1 100.36     Mainly Clear
18:00 Legend Double Dagger 6.1 3.1 81 25 4 24.1 100.42     LegendNANA
19:00 Legend Double Dagger 4.8 3.2 89 22 5 24.1 100.52     LegendNANA
20:00 Legend Double Dagger 8.2 2.3 66 21 9 24.1 100.54     Clear
21:00 Legend Double Dagger 7.3 2.2 70 24 12 24.1 100.58     LegendNANA
22:00 Legend Double Dagger 6.7 3.0 77 24 9 24.1 100.60     LegendNANA
23:00 Legend Double Dagger 6.4 4.4 87 22 8 24.1 100.64     Clear

Notes on Data Quality.

Legend

  • E = Estimated
  • M = Missing
  • NA = Not Available
  • ‡ = Partner data that is not subject to review by the National Climate Archives
Date modified: